Lake Seminole Weather Center

Moon Phase Calendar



Lake Seminole Water Level
Online Cameras

 


      

Current Conditions in Chattahoochee
7/31/2021 9:22:21 PM

82°F
Feels Like 84
Clouds
Humidity
60%
Pressure
29.94"
Wind
3.6 mph (SW)
Dew Point
66°F
UV Index
0/10 (Low)
Visibility
6 mi

Hourly Forecast

Date & Time Sat, Jul 31
9:00 PM
Sat, Jul 31
10:00 PM
Sat, Jul 31
11:00 PM
Sun, Aug 1
12:00 AM
Sun, Aug 1
1:00 AM
Sun, Aug 1
2:00 AM
Sun, Aug 1
3:00 AM
Sun, Aug 1
4:00 AM
Sun, Aug 1
5:00 AM
Sun, Aug 1
6:00 AM
Sun, Aug 1
7:00 AM
Sun, Aug 1
8:00 AM
Sun, Aug 1
9:00 AM
Sun, Aug 1
10:00 AM
Sun, Aug 1
11:00 AM
Sun, Aug 1
12:00 PM
Sun, Aug 1
1:00 PM
Sun, Aug 1
2:00 PM
Sun, Aug 1
3:00 PM
Sun, Aug 1
4:00 PM
Sun, Aug 1
5:00 PM
Sun, Aug 1
6:00 PM
Sun, Aug 1
7:00 PM
Sun, Aug 1
8:00 PM
Sun, Aug 1
9:00 PM
Sun, Aug 1
10:00 PM
Sun, Aug 1
11:00 PM
Mon, Aug 2
12:00 AM
Mon, Aug 2
1:00 AM
Mon, Aug 2
2:00 AM
Mon, Aug 2
3:00 AM
Mon, Aug 2
4:00 AM
Mon, Aug 2
5:00 AM
Mon, Aug 2
6:00 AM
Mon, Aug 2
7:00 AM
Mon, Aug 2
8:00 AM
Mon, Aug 2
9:00 AM
Mon, Aug 2
10:00 AM
Mon, Aug 2
11:00 AM
Mon, Aug 2
12:00 PM
Mon, Aug 2
1:00 PM
Mon, Aug 2
2:00 PM
Mon, Aug 2
3:00 PM
Mon, Aug 2
4:00 PM
Mon, Aug 2
5:00 PM
Mon, Aug 2
6:00 PM
Mon, Aug 2
7:00 PM
Mon, Aug 2
8:00 PM
Condition
Clouds

Clouds

Clouds

Clouds

Clouds

Clouds

Clear

Clear

Clouds

Clouds

Rain

Rain

Clouds

Clouds

Clouds

Clouds

Clouds

Clouds

Clouds

Rain

Rain

Rain

Clouds

Rain

Rain

Clouds

Rain

Clouds

Clouds

Clouds

Clouds

Clouds

Clouds

Clouds

Clouds

Clouds

Clouds

Clouds

Clouds

Clouds

Clouds

Rain

Rain

Clouds

Clouds

Rain

Rain

Rain
Temperature 82°F82°F81°F81°F80°F79°F79°F79°F78°F78°F77°F78°F82°F86°F90°F93°F96°F97°F93°F86°F86°F88°F89°F81°F76°F76°F76°F76°F76°F76°F76°F76°F76°F75°F75°F76°F79°F82°F85°F86°F87°F86°F86°F84°F89°F87°F81°F74°F
Feels Like 84°F85°F85°F85°F80°F79°F79°F80°F80°F80°F78°F80°F89°F94°F98°F102°F103°F105°F102°F93°F94°F96°F96°F86°F78°F78°F78°F78°F78°F78°F78°F78°F77°F76°F76°F77°F79°F88°F91°F92°F94°F92°F91°F88°F93°F94°F86°F75°F
Cloudiness 76%78%81%81%75%66%8%8%13%19%27%34%24%24%44%58%65%71%100%100%100%100%84%73%100%100%98%94%96%96%100%93%95%96%97%96%100%100%100%100%100%100%100%100%98%96%96%97%
Visibility 6 mi6 mi6 mi6 mi6 mi6 mi6 mi6 mi6 mi6 mi6 mi6 mi6 mi6 mi6 mi6 mi6 mi6 mi6 mi6 mi6 mi6 mi6 mi6 mi6 mi6 mi6 mi6 mi6 mi6 mi6 mi6 mi6 mi6 mi6 mi6 mi6 mi6 mi6 mi6 mi6 mi6 mi6 mi6 mi6 mi6 mi3 mi2 mi
Precipitation 11%34%37%29%20%12%17%21%26%39%47%46%23%19%19%19%15%15%0%32%43%54%70%74%98%78%99%80%80%76%51%46%54%50%38%48%36%40%44%44%47%51%46%66%78%87%100%100%
Humidity 60%63%68%75%81%87%86%86%86%86%91%88%78%66%56%50%45%42%50%65%69%60%58%78%88%90%92%94%95%95%95%95%94%92%90%88%80%73%66%65%61%63%62%63%52%63%78%92%
Dew Point 66°F68°F70°F72°F74°F75°F74°F74°F74°F74°F74°F75°F75°F74°F73°F72°F71°F71°F72°F73°F74°F73°F72°F73°F72°F73°F74°F74°F74°F75°F75°F74°F74°F73°F72°F72°F72°F73°F72°F72°F72°F72°F71°F70°F69°F73°F74°F71°F
Pressure 29.94"29.94"29.94"29.97"29.97"29.94"29.94"29.94"29.94"29.97"29.97"30"30"30"30"30"29.97"29.97"29.94"29.94"29.91"29.91"29.94"29.97"29.97"30"30"29.97"29.97"29.97"29.97"29.94"29.97"29.97"29.97"30"30"30"30"30"29.97"29.97"29.94"29.94"29.88"29.91"29.91"29.97"
Wind Speed 3.6 mph6.9 mph6.9 mph5.4 mph6 mph6.4 mph5.5 mph5.9 mph5.9 mph5.4 mph4.7 mph4.2 mph7 mph7.7 mph8.2 mph7.7 mph8 mph8.1 mph8.3 mph10.3 mph8 mph8.8 mph11.3 mph4.4 mph5.2 mph5.4 mph4.2 mph6 mph4.2 mph3.7 mph4.3 mph4.8 mph4 mph3.6 mph3.9 mph3.3 mph3.2 mph4.2 mph5.3 mph6.1 mph7.8 mph10.1 mph9.1 mph7.7 mph9.1 mph9.1 mph7.6 mph13.5 mph
Wind
Direction
230°
SW
220°
SW
240°
WSW
236°
SW
221°
SW
217°
SW
220°
SW
219°
SW
232°
SW
243°
WSW
254°
WSW
261°
W
281°
W
276°
W
270°
W
267°
W
251°
WSW
250°
WSW
237°
WSW
233°
SW
217°
SW
225°
SW
237°
WSW
60°
ENE
128°
SE
134°
SE
193°
SSW
191°
S
180°
S
217°
SW
227°
SW
233°
SW
280°
W
286°
WNW
270°
W
266°
W
269°
W
268°
W
269°
W
249°
WSW
225°
SW
220°
SW
223°
SW
216°
SW
194°
SSW
219°
SW
238°
WSW

N

Daily Forecast

Date High Low Precip. Humidity
Today
Jul 31

Rain
97 °F
77 °F
37%
44%
Sunday
Aug 1

Rain
97 °F
76 °F
99%
45%
Monday
Aug 2

Rain
89 °F
71 °F
100%
61%
Tuesday
Aug 3

Rain
87 °F
71 °F
100%
56%
Wednesday
Aug 4

Rain
82 °F
73 °F
100%
80%
Thursday
Aug 5

Rain
83 °F
72 °F
100%
70%
Friday
Aug 6

Rain
85 °F
72 °F
100%
67%
Saturday
Aug 7

Rain
91 °F
72 °F
76%
49%
Sunday
Aug 8

Rain
93 °F
74 °F
72%
47%
Monday
Aug 9

Clouds
94 °F
76 °F
55%
46%
Tuesday
Aug 10

Rain
94 °F
76 °F
87%
44%
Wednesday
Aug 11

Rain
93 °F
76 °F
99%
47%
Thursday
Aug 12

Rain
83 °F
74 °F
100%
85%
Friday
Aug 13

Rain
91 °F
73 °F
56%
48%
Saturday
Aug 14

Clouds
90 °F
75 °F
21%
48%
Sunday
Aug 15

Rain
93 °F
75 °F
33%
43%

Temperature 8-14 Day Outlook



Precipitation 8-14 Day Outlook




Quick Links
Lake Seminole News
Lake Seminole Photos
Lake Seminole Videos




About Us
Contact Us
Site Map
Search Site
Advertise With Us
   
Seminole.USLakes.info
THE LAKE SEMINOLE WEBSITE

Copyright 2021, Lakes Online
Privacy    |    Legal